Regional Weather Roundup
Issued by NWS

Home | Current Version | Previous Version | Text Only | Print | Product List | Glossary Off
Versions: 1 2 3 4 5 6 7 8 9 10 11 12 13 14 15 16 17 18 19 20 21 22 23 24 25 26 27

000
ASUS45 KPSR 191410
RWRAZ

ARIZONA HOURLY REGIONAL WEATHER ROUNDUP
NATIONAL WEATHER SERVICE PHOENIX AZ
700 AM MST MON FEB 19 2018

NOTE: FAIR INDICATES FEW OR NO CLOUDS BELOW 12,000 FEET WITH NO
SIGNIFICANT WEATHER AND/OR OBSTRUCTIONS TO VISIBILITY.

AZZ001>003-036-191500-
NORTHWEST ARIZONA

CITY           SKY/WX    TMP DP  RH WIND       PRES   REMARKS
BULLHEAD CITY  CLOUDY    55  27  33 SW10      29.67R
KINGMAN        PTCLDY    43  27  53 SW21G30   29.64R
$$

AZZ004>008-015-016-018-191500-
NORTH CENTRAL ARIZONA

CITY           SKY/WX    TMP DP  RH WIND       PRES   REMARKS
GRAND CANYON   CLOUDY    33  27  78 SW21G28   29.55R WCI  21
WILLIAMS       CLOUDY    34  25  69 SW29G46   29.57S WCI  20
PRESCOTT       PTCLDY    41  32  70 SW29G40   29.63R
FLAGSTAFF      CLOUDY    34  28  79 SW36G53   29.58F WCI  19
PAYSON         CLOUDY    45  36  70 SW14G20   29.70F
PAGE           CLEAR     50  19  29 SW16G38   29.42S
$$

AZZ009>014-017-191500-
NORTHEAST ARIZONA

CITY           SKY/WX    TMP DP  RH WIND       PRES   REMARKS
WINSLOW        CLEAR     47  35  63 SW36G45   29.54F
SAINT JOHNS    CLOUDY    42  37  82 SW16G25   29.69S
WINDOW ROCK    CLOUDY    38  35  89 SW20G31   29.65S WCI  28
SHOW LOW       MOCLDY    39  36  87 S39G51    29.66F WCI  26
$$

AZZ540-542>544-546-548-191500-
GREATER PHOENIX AREA

CITY           SKY/WX    TMP DP  RH WIND       PRES   REMARKS
PHOENIX        PTCLDY    57  51  80 SE5       29.70R
BUCKEYE        MOCLDY    55  54  94 SW9       29.73R
GLENDALE       CLOUDY    59  52  77 CALM      29.73R
LUKE AFB       MOCLDY    59  52  77 SW6       29.71R
DEER VALLEY    CLOUDY    57  51  80 SW7       29.71S
SCOTTSDALE     CLOUDY    58  50  75 S6        29.73R
MESA-FALCON    MOCLDY    59  50  72 S14       29.73R
MESA-GATEWAY   MOCLDY    61  48  63 S13       29.75S
CHANDLER       MOCLDY    59  50  72 SE9       29.73R
$$

AZZ539-553-191500-
SOUTHWEST MARICOPA COUNTY AND PINAL COUNTY

CITY           SKY/WX    TMP DP  RH WIND       PRES   REMARKS
CASA GRANDE      N/A     57  48  72 S16G22    29.75S
GILA BEND      FAIR      58  49  73 S9        29.72R
$$

AZZ503-504-507>509-191500-
SOUTHEAST ARIZONA

CITY           SKY/WX    TMP DP  RH WIND       PRES   REMARKS
TUCSON         MOCLDY    58  46  64 SW9       29.82R
DAVIS-MONTHAN  CLOUDY    56  51  83 SW8       29.80R
RYAN FIELD     CLEAR     57  48  72 S13       29.81R
NOGALES        CLOUDY    50  49  96 S10       29.84S
SIERRA VISTA   CLOUDY    51  41  69 S12       29.85R
DOUGLAS        CLEAR     49  41  74 VRB6      29.87R
SAFFORD        PTCLDY    50  49  96 SE6       29.75S
$$

AZZ532-191500-
SOUTHWEST ARIZONA

CITY           SKY/WX    TMP DP  RH WIND       PRES   REMARKS
YUMA           CLEAR     49  38  65 NW5       29.75R
$$

CAZ041-043-047-048-061-525>527-560>570-191500-
SOUTHERN CALIFORNIA

CITY           SKY/WX    TMP DP  RH WIND       PRES   REMARKS
DOWNTOWN L.A.  PTCLDY    50  19  29 VRB6      29.85R
L.A. AIRPORT   PTCLDY    50  22  33 NW9       29.87R
SAN DIEGO      MOCLDY    56  36  47 W12G23    29.93R
BURBANK        PTCLDY    47  20  34 NW9       29.85R
ONTARIO        MOCLDY    48  38  68 SW7       29.81S
RIVERSIDE      MOCLDY    49  38  65 SW7       29.82R
PALM SPRINGS   PTCLDY    56  32  40 SE9       29.67R
EL CENTRO NAS  LGT RAIN  56  34  43 SW37G46   29.77S
IMPERIAL       PTCLDY    56  34  43 SW28G40   29.75R HAZE
BLYTHE         CLEAR     56  39  53 SW23      29.70R
NEEDLES        CLOUDY    55  27  34 NW14      29.68R
$$

NVZ020-UTZ003-191500-
SOUTHERN NEVADA-UTAH

CITY           SKY/WX    TMP DP  RH WIND       PRES   REMARKS
LAS VEGAS      PTCLDY    45  11  25 SW22G31   29.60R
SALT LAKE CITY SNOW      28  25  88 NW16      29.45S VSB 1/2 WCI  16
$$

NMZ009-TXZ055-191500-
NEW MEXICO-WEST TEXAS

CITY           SKY/WX    TMP DP  RH WIND       PRES   REMARKS
ALBUQUERQUE    CLOUDY    44  37  76 S10       29.73F
EL PASO        CLOUDY    54  42  64 CALM      29.82R
$$


........................KEY........................
SKY/WX - SKY CONDITION/WEATHER
TMP    - TEMPERATURE IN FAHRENHEIT
DP     - DEW POINT IN FAHRENHEIT
RH     - RELATIVE HUMIDITY IN PERCENT
WIND   - DIRECTION AND SPEED IN MILES PER HOUR (MPH)
VRB    - VARIABLE WIND DIRECTION
PRES   - MEAN SEA LEVEL PRESSURE IN INCHES OF MERCURY
         F - FALLING PRESSURE   R - RISING PRESSURE
         S - STEADY PRESSURE
VSB    - VISIBILITY IN MILES
HX     - HEAT INDEX IN FAHRENHEIT
WCI    - WIND CHILL INDEX IN FAHRENHEIT
TC     - TEMPERATURE IN CELSIUS WHICH IS ALSO KNOWN AS
         TEMPERATURE IN CENTIGRADE
AFB    - AIR FORCE BASE
         LUKE AFB IS LUKE AIR FORCE BASE
         DAVIS-MONTHAN IS DAVIS-MONTHAN AIR FORCE BASE
NAS    - NAVAL AIR STATION
         EL CENTRO NAS IS EL CENTRO NAVAL AIR STATION
N/A    - NOT AVAILABLE





USA.gov is the U.S. government's official web portal to all federal, state and local government web resources and services.